Weather History for Providence, RI

Change the Weather History Date:

Sunday, May 11, 2014

  Actual Average Record
Temperature  
Mean Temperature 68 °F 57 °F  
Max Temperature 80 °F 67 °F 93 °F (1993)
Min Temperature 56 °F 47 °F 34 °F (1923)
Degree Days  
Heating Degree Days 0 8  
Month to date heating degree days 78 108  
Since 1 July heating degree days 5790 5458  
Cooling Degree Days 3 0  
Month to date cooling degree days 6 0  
Year to date cooling degree days 6 2  
Growing Degree Days 18 (Base 50)    
Moisture  
Dew Point 41 °F    
Average Humidity 48    
Maximum Humidity 80    
Minimum Humidity 15    
Precipitation  
Precipitation 0.04 in 0.11 in 1.54 in (1989)
Month to date precipitation 1.36 1.23  
Year to date precipitation 21.91 17.75  
Snow  
Snow 0.00 in 0.00 in T in (1907)
Month to date snowfall 0.0 0.0  
Since 1 July snowfall 43.6 33.8  
Snow Depth 0.00 in    
Sea Level Pressure  
Sea Level Pressure 29.94 in    
Wind  
Wind Speed 11 mph (West)    
Max Wind Speed 22 mph    
Max Gust Speed 30 mph    
Visibility 10 miles    
Events Rain    
T = Trace of Precipitation, MM = Missing Value Source: NWS Daily Summary

Daily Weather History Graph

Daily Weather History Graph

Search for Another Location

Airport:

Trip Planner

Search our weather history database for the weather conditions in past years. The results will help you decide how hot, cold, wet, or windy it might be!

Date:

Astronomy

May. 11, 2014 Rise Set
Actual Time 5:30 AM EDT 7:54 PM EDT
Civil Twilight 4:58 AM EDT 8:26 PM EDT
Nautical Twilight 4:20 AM EDT 9:05 PM EDT
Astronomical Twilight 3:36 AM EDT 9:48 PM EDT
Moon 4:44 PM EDT (5/11) 3:36 AM EDT (5/11)
Length of Visible Light 15h 27m
Length of Day
14h 24m
Waxing Gibbous, 89% of the Moon is Illuminated
May 11
Waxing Gibbous
May 14
Full
May 21
Last Quarter
May 28
New
Jun 5
First Quarter

Hourly Weather History & Observations

Time (EDT) Temp. Dew Point Humidity Pressure Visibility Wind Dir Wind Speed Gust Speed Precip Events Conditions
12:51 AM 66.2 °F 57.2 °F 73% 29.82 in 10.0 mi WSW 11.5 mph - N/A   Clear
1:51 AM 66.2 °F 57.2 °F 73% 29.81 in 10.0 mi WSW 13.8 mph - N/A   Clear
2:51 AM 64.9 °F 57.0 °F 75% 29.82 in 10.0 mi West 8.1 mph - N/A   Mostly Cloudy
3:51 AM 64.0 °F 57.0 °F 78% 29.84 in 10.0 mi WNW 12.7 mph 21.9 mph 0.00 in Rain Light Rain
4:51 AM 59.0 °F 51.8 °F 77% 29.87 in 9.0 mi WNW 6.9 mph - N/A Rain Light Rain
5:51 AM 57.0 °F 50.0 °F 77% 29.89 in 10.0 mi West 5.8 mph - 0.02 in   Mostly Cloudy
6:51 AM 57.0 °F 51.1 °F 81% 29.93 in 10.0 mi West 5.8 mph - N/A   Mostly Cloudy
7:51 AM 62.6 °F 48.2 °F 59% 29.95 in 10.0 mi West 6.9 mph - N/A   Partly Cloudy
8:51 AM 66.0 °F 45.0 °F 47% 29.96 in 10.0 mi WNW 13.8 mph - N/A   Partly Cloudy
9:51 AM 69.1 °F 42.1 °F 38% 29.98 in 10.0 mi WNW 18.4 mph 29.9 mph N/A   Clear
10:51 AM 71.1 °F 42.1 °F 35% 29.97 in 10.0 mi West 16.1 mph 23.0 mph N/A   Clear
11:51 AM 72.0 °F 37.0 °F 28% 29.97 in 10.0 mi West 17.3 mph 25.3 mph N/A   Clear
12:51 PM 75.0 °F 36.0 °F 24% 29.96 in 10.0 mi West 8.1 mph 19.6 mph N/A   Clear
1:51 PM 77.0 °F 34.0 °F 21% 29.95 in 10.0 mi WNW 11.5 mph 23.0 mph N/A   Clear
2:51 PM 77.0 °F 32.0 °F 19% 29.95 in 10.0 mi West 13.8 mph 24.2 mph N/A   Partly Cloudy
3:51 PM 79.0 °F 30.0 °F 17% 29.94 in 10.0 mi WNW 16.1 mph 26.5 mph N/A   Partly Cloudy
4:51 PM 79.0 °F 27.0 °F 15% 29.94 in 10.0 mi West 18.4 mph 26.5 mph N/A   Partly Cloudy
5:51 PM 79.0 °F 28.0 °F 15% 29.95 in 10.0 mi WNW 17.3 mph 23.0 mph N/A   Partly Cloudy
6:51 PM 78.1 °F 26.1 °F 15% 29.95 in 10.0 mi West 11.5 mph 20.7 mph N/A   Partly Cloudy
7:51 PM 73.9 °F 28.0 °F 18% 29.98 in 10.0 mi West 8.1 mph - N/A   Mostly Cloudy
8:51 PM 73.0 °F 28.0 °F 19% 30.02 in 10.0 mi WNW 9.2 mph - N/A   Partly Cloudy
9:51 PM 68.0 °F 32.0 °F 26% 30.04 in 10.0 mi WSW 4.6 mph - N/A   Partly Cloudy
10:51 PM 62.1 °F 36.0 °F 38% 30.04 in 10.0 mi SSW 3.5 mph - N/A   Partly Cloudy
11:51 PM 63.0 °F 34.0 °F 34% 30.04 in 10.0 mi WNW 3.5 mph - N/A   Scattered Clouds